Location: Boda
(47.1872°N, 9.5454°E)
Time: 09:56:14
(UTC+00:00)

ISS - Pass Details

Date: 14 May 2021
Orbit: 417 x 422 km, 51.6° (Epoch: 16 June)

Event Time Altitude Azimuth Distance (km) Brightness Sun altitude
Exits shadow 00:51:12 - 295° (WNW) 1,763 -0.6 -20.9°
Reaches altitude 10° 00:51:51 10° 298° (WNW) 1,508 -0.9 -20.9°
Maximum altitude 00:55:06 43° 11° (N) 607 -2.5 -20.7°
Drops below altitude 10° 00:58:21 10° 85° (E) 1,507 -0.6 -20.4°
Sets 01:00:31 0° 92° (E) 2,372 0.4 -20.3°
